Terug naar catalogus

AMOS 17

ActiefCommunicatieGEO
NORAD 44479·PAYLOAD·🇮🇱 Israel

Gelanceerd Aug 6, 2019 vanaf Cape Canaveral Space Force Station

Loading…

TLE

VersSource: Space-Track

Epoch: Sep 14, 2026, 13:53 UTC

1 44479U 19050A   26257.57848103  .00000101  00000-0  00000-0 0  9993
2 44479   0.0391   2.2972 0002113 171.9596  44.5772  1.00270328 26088

Volg AMOS 17 in realtime met AllMySat

Download on the App Store